Regional Weather Roundup
Issued by NWS

Home | Current Version | Previous Version | Graphics & Text | Print | Product List | Glossary On
Versions: 1 2 3 4 5 6 7 8 9 10 11 12 13 14 15 16 17 18 19 20 21 22 23 24 25 26 27 28 29 30 31 32 33 34 35 36 37 38 39 40 41 42 43 44 45 46 47 48 49 50
000
ASUS45 KABQ 062001
RWRNM
NEW MEXICO REGIONAL WEATHER ROUNDUP
NATIONAL WEATHER SERVICE ALBUQUERQUE NM
100 PM MST SAT FEB 06 2016

NOTE: "FAIR" MEANS FEW OR NO CLOUDS BELOW 12,000 FEET AGL WITH NO
       SIGNIFICANT WEATHER OR OBSTRUCTIONS TO VISION.

      THIS PRODUCT IS RELEASED AS TWO VERSIONS.  ONE VERSION NEAR
      THE TOP OF THE HOUR CONTAINING PRELIMINARY DATA FROM ALBUQUERQUE
      AND OTHER STATIONS.  A FINAL VERSION WITH ADDITIONAL DATA IS
      ISSUED ABOUT 10 MINUTES AFTER THE HOUR.

NMZ501-503-504-510>518-062100-
NORTHWEST PLATEAU/NORTHCENTRAL MOUNTAINS

CITY           SKY/WX    TMP DP  RH WIND       PRES   REMARKS
FARMINGTON     SUNNY     33  14  45 CALM      30.44F
SANTA FE       SUNNY     41   9  26 N17       30.36F
TAOS             N/A    N/A N/A N/A MISG        N/A

$$
NMZ402-403-502-505>509-062100-
WESTCENTRAL MOUNTAINS/SOUTHWEST MOUNTAINS

CITY           SKY/WX    TMP DP  RH WIND       PRES   REMARKS
GALLUP         SUNNY     41  12  30 CALM      30.42F
SILVER CITY      N/A     48   1  14 S10       30.43F

$$
NMZ407-409-411-412-062100-
SOUTHERN DESERTS

CITY           SKY/WX    TMP DP  RH WIND       PRES   REMARKS
DEMING         SUNNY     50   5  16 CALM      30.42F
HOLLOMAN AFB   SUNNY     51   9  18 NW10      30.38F
ALAMOGORDO     SUNNY     52   5  15 NW14      30.39F
T OR C         SUNNY     48   7  18 E5        30.39F

$$
NMZ519>523-062100-
CENTRAL VALLEYS/CENTRAL HIGHLANDS

CITY           SKY/WX    TMP DP  RH WIND       PRES   REMARKS
ALBUQUERQUE    SUNNY     46   7  20 N9        30.40F
DOUBLE EAGLE   SUNNY     45   9  23 W7        30.40F
MORIARTY ARPT  FAIR      44  11  25 NW15G23   30.35F
CLINES CORNERS SUNNY     36  14  40 NW31G37   30.28F WCI  23
BELEN          FAIR      44   7  21 NE6       30.40F
SOCORRO        NOT AVBL

$$
NMZ524>526-539-540-062100-
SOUTHCENTRAL MOUNTAINS

CITY           SKY/WX    TMP DP  RH WIND       PRES   REMARKS
RUIDOSO          N/A     48   0  13 N15G21    30.37F

$$
NMZ527>531-062100-
NORTHEAST HIGHLANDS/NORTHEAST PLAINS

CITY           SKY/WX    TMP DP  RH WIND       PRES   REMARKS
LAS VEGAS      SUNNY     46  11  24 S9        30.24F
RATON          SUNNY     46   8  21 S5        30.22F
CLAYTON        SUNNY     56   6  13 S13G24    30.22F

$$
NMZ532>537-062100-
EASTCENTRAL PLAINS

CITY           SKY/WX    TMP DP  RH WIND       PRES   REMARKS
TUCUMCARI      SUNNY     55  12  18 S8        30.25F
CANNON AFB     NOT AVBL
CLOVIS AIRPORT SUNNY     52  14  22 SW12      30.31F

$$
NMZ028-029-538-062100-
SOUTHEAST PLAINS

CITY           SKY/WX    TMP DP  RH WIND       PRES   REMARKS
ROSWELL        SUNNY     54  11  18 VRB6      30.32F
ARTESIA        SUNNY     55  10  16 VRB5      30.32F
CARLSBAD       SUNNY     56  14  19 CALM      30.31F
HOBBS          SUNNY     55   5  13 W10       30.35F


$$



USA.gov is the U.S. government's official web portal to all federal, state and local government web resources and services.